Regional Weather Roundup
Issued by NWS

Home | Current Version | Previous Version | Graphics & Text | Print | Product List | Glossary On
Versions: 1 2 3 4 5 6 7 8 9 10 11 12 13 14 15 16 17 18 19 20 21 22 23 24 25 26 27 28 29 30 31 32 33 34 35 36 37 38 39 40 41 42 43 44 45 46 47 48 49 50
000
ASUS45 KBOU 022010
RWRCO

WEATHER ROUNDUP FOR COLORADO
NATIONAL WEATHER SERVICE DENVER/BOULDER CO
200 PM MDT THU JUL 02 2015

NOTE: "FAIR" INDICATES FEW OR NO CLOUDS BELOW 12000 FEET WITH NO
SIGNIFICANT WEATHER AND/OR OBSTRUCTIONS TO VISIBILITY.

COZ001>005-013-030-031-022100-
...NORTHWEST COLORADO...

CITY           SKY/WX    TMP DP  RH WIND       PRES   REMARKS
CRAIG          PTSUNNY   87  41  19 VRB3      30.18F
HAYDEN         MOSUNNY   82  41  23 N7        30.21F
MEEKER         MOSUNNY   87  43  21 MISG      30.20F
MOUNT WERNER   NOT AVBL
STEAMBOAT SPGS SUNNY     84  45  25 SW10G21   30.23F
WALDEN         SUNNY     77  30  18 NW12G23   30.35S
$$

COZ006>008-011-022100-
...WEST CENTRAL VALLEYS...

CITY           SKY/WX    TMP DP  RH WIND       PRES   REMARKS
GRAND JUNCTION PTSUNNY   93  48  21 W9        30.05F
MONTROSE       CLOUDY    88  51  28 NW7       30.15F
EAGLE          TSTM      84  46  26 SW6       30.21F
RIFLE          PTSUNNY   92  47  21 W8        30.10F
DELTA          CLOUDY    92  50  24 S7        30.09F
NUCLA          CLOUDY    86  46  25 N5        30.20F
$$

COZ017>023-064>068-022100-
...SOUTHWEST COLORADO...

CITY           SKY/WX    TMP DP  RH WIND       PRES   REMARKS
DURANGO        MOSUNNY   85  52  32 SW10      30.18F
CORTEZ         SUNNY     88  50  27 W10G18    30.14F
PAGOSA SPRINGS MOSUNNY   80  40  24 W5        30.28S
TELLURIDE      PTSUNNY   74  49  41 W6        30.43F
WOLF CREEK PAS NOT AVBL
$$

COZ009-010-012-014-032>034-037-058>063-022100-
...CENTRAL COLORADO...

CITY           SKY/WX    TMP DP  RH WIND       PRES   REMARKS
ASPEN          PTSUNNY   81  47  30 N10       30.28F
BUENA VISTA    PTSUNNY   75  50  41 S9        30.32S THUNDER
COPPER MTN     PTSUNNY   63  37  39 W10G20    30.66S
BERTHOUD PASS  CLOUDY    46  36  66 E13G18    30.71F THUNDER
COTTONWOOD PAS NOT AVBL
GUNNISON       PTSUNNY   79  48  34 SW12      30.30F
KREMMLING      MOSUNNY   86  32  14 W7        30.28F
LEADVILLE      PTSUNNY   68  40  35 N8        30.45S
MONARCH PASS   CLOUDY    54  43  66 W23       30.74S
SALIDA         CLOUDY    73  55  52 E3        30.38R
SUNLIGHT       PTSUNNY   70  50  49 CALM      30.59S
WILKERSON PASS CLOUDY    46  45  93 NE13      30.64R
$$

COZ069>075-022100-
...SAN LUIS VALLEY/SANGRE DE CRISTO MOUNTAINS...

CITY           SKY/WX    TMP DP  RH WIND       PRES   REMARKS
ALAMOSA        PTSUNNY   78  50  37 CALM      30.28F
LA VETA PASS   CLOUDY    54  52  94 MISG      30.52S FOG
SAGUACHE       PTSUNNY   73  54  49 SE6       30.31F
$$

COZ035-036-038>040-022100-
...NORTHERN COLORADO FRONT RANGE...

CITY           SKY/WX    TMP DP  RH WIND       PRES   REMARKS
DENVER INTL AP MOSUNNY   81  50  33 E7        30.20F
DMNS CITY PARK   N/A     80  48  32 SE3G9     30.20S
AURORA         MOSUNNY   78  54  42 W5        30.23F
FRONT RANGE AP MOSUNNY   79  54  41 CALM      30.22F
ERIE MUNI ARPT MOSUNNY   82  46  27 SE3       30.18F
BOULDER MUN AP MOSUNNY   79  48  34 N5        30.20S
CENTENNIAL     PTSUNNY   78  51  38 NE5       30.24F
BROOMFIELD     PTSUNNY   81  50  34 VRB3      30.23F
FORT COLLINS   SUNNY     82  55  39 CALM      30.17F
LONGMONT       SUNNY     85  50  29 E5        30.20F
$$

COZ041-046-047-076>085-087-088-022100-
...PIKES PEAK/PALMER DIVIDE AND SOUTHERN FOOTHILLS...

CITY           SKY/WX    TMP DP  RH WIND       PRES   REMARKS
COLO. SPRINGS  PTSUNNY   74  52  46 CALM      30.27F
A. F. ACADEMY  CLOUDY    70  52  52 NW7       30.28S
ELLICOTT       PTSUNNY  N/A N/A N/A VRB5      30.26F
FALCON         PTSUNNY   71  53  52 E7        30.33S
FORT CARSON    NOT AVBL
LIMON          SUNNY     76  56  49 N7        30.21F
MONUMENT HILL  MOSUNNY   70  52  52 E3        30.33F
TRINIDAD       PTSUNNY   74  57  55 N9        30.25F
$$

COZ042>045-048>051-090-091-022100-
...NORTHEAST COLORADO...

CITY           SKY/WX    TMP DP  RH WIND       PRES   REMARKS
GREELEY ARPT   SUNNY     79  55  44 NE3       30.17F
AKRON          SUNNY     79  56  45 NW13G20   30.16F
BURLINGTON     SUNNY     81  58  45 N17G25    30.12F
WRAY           MOSUNNY   86  56  35 NW16      30.09F
STERLING       MOSUNNY   82  59  44 NE13G18     N/A
HOLYOKE        MOSUNNY   86  55  35 N15G23    30.10F
FORT MORGAN    SUNNY     83  51  33 N5        30.15F
$$

COZ086-089-092>099-022100-
...SOUTHEAST COLORADO...

CITY           SKY/WX    TMP DP  RH WIND       PRES   REMARKS
PUEBLO         PTSUNNY   81  56  42 S7        30.17F
LA JUNTA       PTSUNNY   81  57  43 VRB6      30.14F
LAMAR          PTSUNNY   88  58  36 VRB7      30.06S
SPRINGFIELD      N/A     83  58  42 NW8       30.11F
$$


USA.gov is the U.S. government's official web portal to all federal, state and local government web resources and services.